(41573) Miriamrobbins = 1995 PE = 2000 RB99

Discovered at Anderson Mesa on 2000-09-05 by LONEOS.
(41573) Miriamrobbins

Miriam Robbins (b. 1971) is an American Visitor Experience Manager for Lowell Observatory and past chapter president for the Museum Store Association. She has led guest services and the Starry Skies Shop with the aim of ensuring that Observatory guests have awe-inspiring experiences from arrival to departure. [Ref: WGSBN Bull. 3, #8, 12]

Orbit

Orbit type: Main Belt

Note: WebGL enabled browser required.

epoch2023-09-13.0
epoch JD2460200.5
perihelion date2022-04-14.33599
perihelion JD2459683.83599
argument of perihelion (°)192.29658
ascending node (°)248.67833
inclination (°)11.75022
eccentricity0.2537441
perihelion distance (AU)1.9382213
Tisserand w.r.t. Jupiter3.3
ΔV w.r.t. Earth (km/sec)9.4
semimajor axis (AU)2.5972610
mean anomaly (°)121.65744
mean daily motion (°/day)0.23546720
aphelion distance (AU)3.256
period (years)4.19
P-vector [x]0.16102448
P-vector [y]0.92188648
P-vector [z]0.35241514
Q-vector [x]-0.96854657
Q-vector [y]0.21623954
Q-vector [z]-0.12311786
absolute magnitude15.14
phase slope0.15
uncertainty0
referenceMPEC 2024-A124
observations used1228
oppositions17
arc length (days)11153
first opposition used1992
last opposition used2023
residual rms (arc-secs)0.65
perturbers coarse indicatorM-v
perturbers precise indicator003Ek
first observation date used1992-11-28.0
last observation date used2023-06-12.0
computer nameMPCLINUX
JD of orbit computation2456819.502014
perihelion JD uncertainty (days)6.0004E-05
argument of perihelion uncertainty (°)3.9806E-05
ascending node uncertainty (°)3.6159E-05
inclination uncertainty (°)6.4051E-06
eccentricity uncertainty 6.2140E-08
perihelion distance uncertainty (AU)1.5933E-07
Minimum Orbit Intersection Distances (in AU)
for orbit epoch: 2460200.5, reference: E2024-AC4
Mercury1.63269
Venus1.21893
Earth0.95411
Mars0.40331
Jupiter2.02702
Saturn6.82171
Uranus15.743
Neptune27.2089

Observations

1232 total observations over interval: 1992 11 28.30050 – 2023 06 12.195332
These data are available for download (format description).

Date (UT) J2000 RA J2000 Dec Magn Location Ref
1992 11 28.30050 04 34 53.99 +22 19 29.2 16.6 V 691 – Steward Observatory, Kitt Peak-Spacewatch MPS 21134
1992 11 28.32939 04 34 52.21 +22 19 09.4   691 – Steward Observatory, Kitt Peak-Spacewatch MPS 21134
1992 11 28.36081 04 34 50.50 +22 18 46.0   691 – Steward Observatory, Kitt Peak-Spacewatch MPS 21134
1992 12 03.75885 04 30 00.64 +21 13 32.0 16.5   372 – Geisei MPS 43467
1992 12 03.77031 04 29 59.82 +21 13 26.8   372 – Geisei MPS 43467
1995 08 03.39811 18 22 09.78 -13 19 34.5   608 – Haleakala-AMOS MPC 25486
1995 08 03.42646 18 22 08.88 -13 19 31.7   608 – Haleakala-AMOS MPC 25486
1995 08 03.45377 18 22 07.60 -13 19 35.3   608 – Haleakala-AMOS MPC 25486
1995 08 04.39058 18 21 34.58 -13 19 58.5   608 – Haleakala-AMOS MPC 25486
1995 08 04.41462 18 21 33.63 -13 20 00.0   608 – Haleakala-AMOS MPC 25486
2000 09 05.23010 23 28 31.92 +17 38 20.1 17.8 R 699 – Lowell Observatory-LONEOS MPS 19691
2000 09 05.25606 23 28 30.60 +17 38 15.5   699 – Lowell Observatory-LONEOS MPS 19691
2000 09 05.28204 23 28 29.25 +17 38 11.0   699 – Lowell Observatory-LONEOS MPS 19691
2000 09 05.30792 23 28 27.92 +17 38 06.8   699 – Lowell Observatory-LONEOS MPS 19691
2000 09 06.24994 23 27 41.61 +17 35 14.3 18.6   704 – Lincoln Laboratory ETS, New Mexico MPS 19691
2000 09 06.26303 23 27 40.94 +17 35 12.0 18.7   704 – Lincoln Laboratory ETS, New Mexico MPS 19691
2000 09 06.27609 23 27 40.23 +17 35 09.2 18.4   704 – Lincoln Laboratory ETS, New Mexico MPS 19691
2000 09 06.28915 23 27 39.55 +17 35 07.1 18.5   704 – Lincoln Laboratory ETS, New Mexico MPS 19691
2000 09 06.30222 23 27 38.88 +17 35 04.4 18.9   704 – Lincoln Laboratory ETS, New Mexico MPS 19691
2000 09 21.39301 23 14 30.09 +16 14 38.9 18.4   608 – Haleakala-AMOS MPS 19691
2000 09 21.40339 23 14 29.51 +16 14 34.3 18.4   608 – Haleakala-AMOS MPS 19691
2000 09 21.41370 23 14 28.96 +16 14 29.7 18.5   608 – Haleakala-AMOS MPS 19691
2000 09 22.29249 23 13 43.27 +16 07 56.4 18.5   704 – Lincoln Laboratory ETS, New Mexico MPS 19691
2000 09 22.30721 23 13 42.51 +16 07 49.7 18.6   704 – Lincoln Laboratory ETS, New Mexico MPS 19691
2000 09 22.32199 23 13 41.66 +16 07 42.9 18.2   704 – Lincoln Laboratory ETS, New Mexico MPS 19691
2000 09 22.33672 23 13 40.84 +16 07 36.2 18.3   704 – Lincoln Laboratory ETS, New Mexico MPS 19691
2000 09 22.35145 23 13 40.04 +16 07 29.3 18.6   704 – Lincoln Laboratory ETS, New Mexico MPS 19691
2000 09 23.27847 23 12 52.45 +16 00 26.1 17.6 R 699 – Lowell Observatory-LONEOS MPS 30118
2000 09 23.29391 23 12 51.67 +16 00 18.6   699 – Lowell Observatory-LONEOS MPS 30118
2000 09 23.30932 23 12 50.80 +16 00 12.0   699 – Lowell Observatory-LONEOS MPS 30118
2000 09 23.32481 23 12 50.03 +16 00 06.0   699 – Lowell Observatory-LONEOS MPS 30118
2000 09 26.37661 23 10 16.49 +15 35 33.8 18.0   608 – Haleakala-AMOS MPS 19691
2000 09 26.38784 23 10 15.91 +15 35 28.2 18.2   608 – Haleakala-AMOS MPS 19691
2000 09 26.39872 23 10 15.33 +15 35 22.7 18.3   608 – Haleakala-AMOS MPS 19691
2000 09 28.20217 23 08 47.96 +15 20 02.8 18.0   704 – Lincoln Laboratory ETS, New Mexico MPS 19691
2000 09 28.21733 23 08 47.18 +15 19 56.2 19.7   704 – Lincoln Laboratory ETS, New Mexico MPS 19691
2000 09 28.23248 23 08 46.45 +15 19 47.3 18.4   704 – Lincoln Laboratory ETS, New Mexico MPS 19691
2000 09 28.24762 23 08 45.69 +15 19 39.7 18.4   704 – Lincoln Laboratory ETS, New Mexico MPS 19691
2000 09 28.26277 23 08 44.95 +15 19 31.6 18.3   704 – Lincoln Laboratory ETS, New Mexico MPS 19691
2000 10 04.26089 23 04 17.52 +14 25 02.3 18.7   704 – Lincoln Laboratory ETS, New Mexico MPS 19691
2000 10 04.27594 23 04 16.82 +14 24 53.9 18.9   704 – Lincoln Laboratory ETS, New Mexico MPS 19691
2000 10 04.29099 23 04 16.23 +14 24 44.7 18.7   704 – Lincoln Laboratory ETS, New Mexico MPS 19691
2000 10 04.30606 23 04 15.59 +14 24 36.3 18.8   704 – Lincoln Laboratory ETS, New Mexico MPS 19691
2000 10 04.32160 23 04 14.91 +14 24 27.3 18.6   704 – Lincoln Laboratory ETS, New Mexico MPS 19691
2000 10 25.15908 22 55 44.21 +11 03 52.3 19.0   704 – Lincoln Laboratory ETS, New Mexico MPS 21134
2000 10 25.17279 22 55 44.05 +11 03 45.4 19.1   704 – Lincoln Laboratory ETS, New Mexico MPS 21134
2000 10 25.18642 22 55 43.94 +11 03 37.5 19.3   704 – Lincoln Laboratory ETS, New Mexico MPS 21134
2000 10 25.20053 22 55 43.81 +11 03 29.5 19.8   704 – Lincoln Laboratory ETS, New Mexico MPS 21134
2000 10 25.21547 22 55 43.74 +11 03 21.0 19.3   704 – Lincoln Laboratory ETS, New Mexico MPS 21134
2000 10 31.14409 22 55 43.65 +10 11 49.9 18.2   704 – Lincoln Laboratory ETS, New Mexico MPS 21134
2000 10 31.15792 22 55 43.77 +10 11 43.2 18.5   704 – Lincoln Laboratory ETS, New Mexico MPS 21134
2000 10 31.17192 22 55 43.82 +10 11 36.8 19.1   704 – Lincoln Laboratory ETS, New Mexico MPS 21134
2000 10 31.18577 22 55 43.85 +10 11 29.7 18.7   704 – Lincoln Laboratory ETS, New Mexico MPS 21134
2000 10 31.19951 22 55 43.94 +10 11 22.9 18.7   704 – Lincoln Laboratory ETS, New Mexico MPS 21134
2000 11 19.15977 23 03 09.67 +08 07 39.9 18.6   704 – Lincoln Laboratory ETS, New Mexico MPS 22456
2000 11 19.17541 23 03 10.23 +08 07 34.5 19.6   704 – Lincoln Laboratory ETS, New Mexico MPS 22456
2000 11 19.20540 23 03 11.27 +08 07 29.9 19.5   704 – Lincoln Laboratory ETS, New Mexico MPS 22456
2000 11 25.06951 23 07 36.07 +07 43 53.5 18.3 R 699 – Lowell Observatory-LONEOS MPS 22456
2000 11 25.09281 23 07 37.14 +07 43 48.6   699 – Lowell Observatory-LONEOS MPS 22456
2000 11 25.11611 23 07 38.23 +07 43 44.4   699 – Lowell Observatory-LONEOS MPS 22456
2000 11 25.13942 23 07 39.38 +07 43 40.3   699 – Lowell Observatory-LONEOS MPS 22456
2000 11 26.09446 23 08 27.62 +07 40 31.0 19.5   704 – Lincoln Laboratory ETS, New Mexico MPS 22456
2000 11 26.11280 23 08 28.52 +07 40 28.1 19.0   704 – Lincoln Laboratory ETS, New Mexico MPS 22456
2000 11 26.14643 23 08 30.24 +07 40 21.9 19.2   704 – Lincoln Laboratory ETS, New Mexico MPS 22456
2000 12 19.08203 23 34 06.36 +07 20 30.3 19.4   704 – Lincoln Laboratory ETS, New Mexico MPS 23814
2000 12 19.09739 23 34 07.56 +07 20 31.7 19.4   704 – Lincoln Laboratory ETS, New Mexico MPS 23814
2000 12 19.12786 23 34 10.04 +07 20 32.7 19.1   704 – Lincoln Laboratory ETS, New Mexico MPS 23814
2002 04 08.21047 11 39 55.10 -15 41 28.9 18.8   644 – Palomar Mountain/NEAT MPS 54664
2002 04 08.23138 11 39 54.24 -15 41 17.2 18.5   644 – Palomar Mountain/NEAT MPS 54664
2002 04 08.25242 11 39 53.36 -15 41 05.1 18.6   644 – Palomar Mountain/NEAT MPS 54664
2002 04 19.20647 11 33 55.22 -13 58 48.4 19.2   644 – Palomar Mountain/NEAT MPS 54664
2002 04 19.22786 11 33 54.66 -13 58 36.6 19.1   644 – Palomar Mountain/NEAT MPS 54664
2002 04 19.24748 11 33 54.12 -13 58 25.5 18.9   644 – Palomar Mountain/NEAT MPS 54664
2002 05 11.22818 11 30 51.99 -11 08 31.1 20.1   644 – Palomar Mountain/NEAT MPS 54475
2002 05 11.23853 11 30 52.06 -11 08 28.2 20.4   644 – Palomar Mountain/NEAT MPS 54475
2002 05 11.24907 11 30 52.14 -11 08 24.4 20.5   644 – Palomar Mountain/NEAT MPS 54475
2004 08 12.35450 22 09 15.27 +08 22 15.7 18.4   644 – Palomar Mountain/NEAT MPS 111619
2004 08 12.37512 22 09 14.19 +08 22 14.5 18.5   644 – Palomar Mountain/NEAT MPS 111619
2004 08 12.40150 22 09 12.82 +08 22 12.9 18.5   644 – Palomar Mountain/NEAT MPS 111619
2004 08 13.26976 22 08 29.12 +08 21 13.2 18.7   644 – Palomar Mountain/NEAT MPS 111619
2004 08 13.29031 22 08 28.04 +08 21 11.7 18.8   644 – Palomar Mountain/NEAT MPS 111619
2004 08 13.31249 22 08 26.88 +08 21 09.9 18.8   644 – Palomar Mountain/NEAT MPS 111619
2004 09 09.18899 21 44 39.80 +06 32 20.9 18.6   644 – Palomar Mountain/NEAT MPS 115000
2004 09 09.21132 21 44 38.68 +06 32 12.2 18.7   644 – Palomar Mountain/NEAT MPS 115000
2004 09 09.23260 21 44 37.63 +06 32 04.2 19.0   644 – Palomar Mountain/NEAT MPS 115000
